Time,TemperatureF,DewpointF,PressureIn,WindDirection,WindDirectionDegrees,WindSpeedMPH,WindSpeedGustMPH,Humidity,HourlyPrecipIn,Conditions,Clouds,dailyrainin,SoftwareType,DateUTC
2013-03-01 00:01:00,29.5,25.0,30.03,NW,315,1.6,3.8,83,0.00,,,0.00,WUHU216HW,2013-03-01 06:01:00,
2013-03-01 00:06:00,29.5,25.0,30.03,WNW,293,2.0,4.0,83,0.00,,,0.00,WUHU216HW,2013-03-01 06:06:00,
2013-03-01 00:11:00,29.5,25.0,30.03,WNW,293,3.1,4.0,83,0.00,,,0.00,WUHU216HW,2013-03-01 06:11:00,
2013-03-01 00:16:00,29.3,25.1,30.03,WSW,248,1.1,3.1,84,0.00,,,0.00,WUHU216HW,2013-03-01 06:16:00,
2013-03-01 00:21:00,29.3,25.1,30.03,NW,315,2.5,2.5,84,0.00,,,0.00,WUHU216HW,2013-03-01 06:21:00,
2013-03-01 00:26:00,29.3,25.1,30.03,NNW,338,0.4,2.9,84,0.00,,,0.00,WUHU216HW,2013-03-01 06:26:00,
2013-03-01 00:31:00,29.3,25.1,30.03,West,260,2.3,3.1,84,0.00,,,0.00,WUHU216HW,2013-03-01 06:31:00,
2013-03-01 00:36:00,29.3,25.1,30.03,NNW,338,0.4,3.1,84,0.00,,,0.00,WUHU216HW,2013-03-01 06:36:00,
2013-03-01 00:41:00,29.3,25.1,30.03,NW,315,3.8,5.1,84,0.00,,,0.00,WUHU216HW,2013-03-01 06:41:00,
2013-03-01 00:46:00,29.3,25.1,30.03,NW,315,1.5,5.1,84,0.00,,,0.00,WUHU216HW,2013-03-01 06:46:00,
2013-03-01 00:51:00,29.3,25.1,30.03,NW,315,1.3,3.4,84,0.00,,,0.00,WUHU216HW,2013-03-01 06:51:00,
2013-03-01 00:56:00,29.3,25.1,30.03,WNW,293,3.4,3.4,84,0.00,,,0.00,WUHU216HW,2013-03-01 06:56:00,
2013-03-01 01:01:00,29.3,25.1,30.03,WNW,287,1.1,3.4,84,0.00,,,0.00,WUHU216HW,2013-03-01 07:01:00,
2013-03-01 01:05:00,29.3,25.1,30.03,NW,326,1.1,1.8,84,0.00,,,0.00,WUHU216HW,2013-03-01 07:05:00,
2013-03-01 01:06:00,29.3,25.1,30.02,WNW,293,2.0,2.0,84,0.00,,,0.00,WUHU216HW,2013-03-01 07:06:00,
2013-03-01 01:07:00,29.2,24.9,30.03,WNW,293,1.5,2.0,84,0.00,,,0.00,WUHU216HW,2013-03-01 07:07:00,
2013-03-01 01:08:00,29.3,25.1,30.03,NW,315,1.8,2.0,84,0.00,,,0.00,WUHU216HW,2013-03-01 07:08:00,
2013-03-01 01:09:00,29.2,24.9,30.03,WNW,290,1.5,2.0,84,0.00,,,0.00,WUHU216HW,2013-03-01 07:09:00,
2013-03-01 01:10:00,29.3,25.1,30.03,NW,315,1.8,2.0,84,0.00,,,0.00,WUHU216HW,2013-03-01 07:10:00,
2013-03-01 01:11:00,29.2,24.9,30.03,NW,315,2.5,2.5,84,0.00,,,0.00,WUHU216HW,2013-03-01 07:11:00,
2013-03-01 01:12:00,29.2,24.9,30.02,NW,315,4.9,4.9,84,0.00,,,0.00,WUHU216HW,2013-03-01 07:12:00,
2013-03-01 01:13:00,29.2,24.9,30.03,NW,317,2.7,4.9,84,0.00,,,0.00,WUHU216HW,2013-03-01 07:13:00,
2013-03-01 01:14:00,29.2,24.9,30.03,NNW,338,2.7,4.9,84,0.00,,,0.00,WUHU216HW,2013-03-01 07:14:00,
2013-03-01 01:15:00,29.2,24.9,30.02,NNW,338,2.5,4.9,84,0.00,,,0.00,WUHU216HW,2013-03-01 07:15:00,
2013-03-01 01:16:00,29.2,24.9,30.03,NNW,332,1.5,4.9,84,0.00,,,0.00,WUHU216HW,2013-03-01 07:16:00,
2013-03-01 01:17:00,29.2,24.9,30.02,NW,315,2.0,4.9,84,0.00,,,0.00,WUHU216HW,2013-03-01 07:17:00,
2013-03-01 01:18:00,29.2,24.9,30.02,WSW,248,2.9,4.9,84,0.00,,,0.00,WUHU216HW,2013-03-01 07:18:00,
2013-03-01 01:19:00,29.2,24.9,30.02,West,280,2.8,4.9,84,0.00,,,0.00,WUHU216HW,2013-03-01 07:19:00,
2013-03-01 01:20:00,29.2,24.9,30.03,NW,321,1.8,4.9,84,0.00,,,0.00,WUHU216HW,2013-03-01 07:20:00,
2013-03-01 01:21:00,29.2,24.9,30.02,NW,315,2.7,4.9,84,0.00,,,0.00,WUHU216HW,2013-03-01 07:21:00,
2013-03-01 01:22:00,29.2,24.9,30.02,NW,305,2.5,2.9,84,0.00,,,0.00,WUHU216HW,2013-03-01 07:22:00,
2013-03-01 01:23:00,29.2,24.9,30.03,WNW,300,1.7,2.9,84,0.00,,,0.00,WUHU216HW,2013-03-01 07:23:00,
2013-03-01 01:24:00,29.2,24.9,30.03,North,0,2.7,2.9,84,0.00,,,0.00,WUHU216HW,2013-03-01 07:24:00,
2013-03-01 01:25:00,29.2,24.9,30.03,NNW,341,2.3,2.9,84,0.00,,,0.00,WUHU216HW,2013-03-01 07:25:00,
2013-03-01 01:26:00,29.2,24.9,30.03,NW,315,1.2,2.9,84,0.00,,,0.00,WUHU216HW,2013-03-01 07:26:00,
2013-03-01 01:27:00,29.2,24.9,30.03,NW,315,0.9,2.9,84,0.00,,,0.00,WUHU216HW,2013-03-01 07:27:00,
2013-03-01 01:28:00,29.2,25.2,30.03,NW,315,0.8,2.7,85,0.00,,,0.00,WUHU216HW,2013-03-01 07:28:00,
2013-03-01 01:29:00,29.2,25.2,30.03,WNW,293,2.9,2.9,85,0.00,,,0.00,WUHU216HW,2013-03-01 07:29:00,
2013-03-01 01:30:00,29.2,25.2,30.03,NW,308,2.3,2.9,85,0.00,,,0.00,WUHU216HW,2013-03-01 07:30:00,
2013-03-01 01:31:00,29.2,25.2,30.03,NNW,346,1.3,2.9,85,0.00,,,0.00,WUHU216HW,2013-03-01 07:31:00,
2013-03-01 01:32:00,29.2,25.2,30.03,NW,315,1.3,2.9,85,0.00,,,0.00,WUHU216HW,2013-03-01 07:32:00,
2013-03-01 01:33:00,29.2,24.9,30.03,NW,323,1.0,2.9,84,0.00,,,0.00,WUHU216HW,2013-03-01 07:33:00,
2013-03-01 01:34:00,29.2,25.2,30.03,WNW,293,1.6,2.9,85,0.00,,,0.00,WUHU216HW,2013-03-01 07:34:00,
2013-03-01 01:35:00,29.2,25.2,30.02,WNW,293,1.0,2.9,85,0.00,,,0.00,WUHU216HW,2013-03-01 07:35:00,
2013-03-01 01:45:00,29.2,25.2,30.02,North,0,1.8,3.1,85,0.00,,,0.00,WUHU216HW,2013-03-01 07:45:00,
2013-03-01 01:50:00,29.2,25.2,30.02,NW,315,2.5,3.1,85,0.00,,,0.00,WUHU216HW,2013-03-01 07:50:00,
2013-03-01 01:55:00,29.2,25.2,30.03,NW,315,0.4,2.5,85,0.00,,,0.00,WUHU216HW,2013-03-01 07:55:00,
2013-03-01 02:00:00,29.2,25.2,30.02,NNW,338,1.6,2.5,85,0.00,,,0.00,WUHU216HW,2013-03-01 08:00:00,
2013-03-01 02:05:00,29.2,25.2,30.02,WNW,293,0.9,4.0,85,0.00,,,0.00,WUHU216HW,2013-03-01 08:05:00,
2013-03-01 02:10:00,29.0,25.0,30.02,NW,315,1.6,4.0,85,0.00,,,0.00,WUHU216HW,2013-03-01 08:10:00,
2013-03-01 02:15:00,29.0,25.0,30.02,NNW,338,1.1,2.5,85,0.00,,,0.00,WUHU216HW,2013-03-01 08:15:00,
2013-03-01 02:20:00,29.0,25.0,30.02,NW,305,2.0,2.2,85,0.00,,,0.00,WUHU216HW,2013-03-01 08:20:00,
2013-03-01 02:25:00,29.0,25.0,30.02,NW,315,0.9,2.9,85,0.00,,,0.00,WUHU216HW,2013-03-01 08:25:00,
2013-03-01 02:30:00,29.0,25.0,30.02,NW,315,1.6,2.9,85,0.00,,,0.00,WUHU216HW,2013-03-01 08:30:00,
2013-03-01 02:35:00,29.0,25.0,30.02,WSW,248,1.1,1.6,85,0.00,,,0.00,WUHU216HW,2013-03-01 08:35:00,
2013-03-01 02:40:00,28.8,24.8,30.02,NW,315,1.8,3.1,85,0.00,,,0.00,WUHU216HW,2013-03-01 08:40:00,
2013-03-01 02:45:00,28.8,24.8,30.02,NW,318,1.5,4.0,85,0.00,,,0.00,WUHU216HW,2013-03-01 08:45:00,
2013-03-01 02:50:00,28.8,24.8,30.02,NW,315,1.8,4.0,85,0.00,,,0.00,WUHU216HW,2013-03-01 08:50:00,
2013-03-01 02:55:00,28.8,24.8,30.01,NNW,338,1.6,2.7,85,0.00,,,0.00,WUHU216HW,2013-03-01 08:55:00,
2013-03-01 03:00:00,28.8,25.1,30.01,NNW,347,0.9,1.8,86,0.00,,,0.00,WUHU216HW,2013-03-01 09:00:00,
2013-03-01 03:05:00,28.8,25.1,30.01,NNW,338,2.0,2.0,86,0.00,,,0.00,WUHU216HW,2013-03-01 09:05:00,
2013-03-01 03:10:00,28.8,25.1,30.01,NNE,20,1.0,2.9,86,0.00,,,0.00,WUHU216HW,2013-03-01 09:10:00,
2013-03-01 03:15:00,28.8,25.1,30.01,West,270,1.1,2.9,86,0.00,,,0.00,WUHU216HW,2013-03-01 09:15:00,
2013-03-01 03:20:00,28.8,25.1,30.01,WNW,295,1.6,2.7,86,0.00,,,0.00,WUHU216HW,2013-03-01 09:20:00,
2013-03-01 03:25:00,28.8,25.1,30.01,NNW,338,1.3,2.7,86,0.00,,,0.00,WUHU216HW,2013-03-01 09:25:00,
2013-03-01 03:30:00,28.8,25.1,30.01,NW,315,0.9,2.7,86,0.00,,,0.00,WUHU216HW,2013-03-01 09:30:00,
2013-03-01 03:35:00,28.8,25.1,30.01,NW,315,1.1,4.0,86,0.00,,,0.00,WUHU216HW,2013-03-01 09:35:00,
2013-03-01 03:40:00,28.8,25.1,30.01,North,0,0.4,4.0,86,0.00,,,0.00,WUHU216HW,2013-03-01 09:40:00,
2013-03-01 03:45:00,28.8,25.1,30.02,NNW,342,1.2,3.1,86,0.00,,,0.00,WUHU216HW,2013-03-01 09:45:00,
2013-03-01 03:50:00,28.8,25.1,30.02,WSW,248,1.1,2.5,86,0.00,,,0.00,WUHU216HW,2013-03-01 09:50:00,
2013-03-01 03:55:00,28.6,24.9,30.01,NW,315,1.6,2.7,86,0.00,,,0.00,WUHU216HW,2013-03-01 09:55:00,
2013-03-01 04:00:00,28.6,24.9,30.02,NNW,348,0.4,2.7,86,0.00,,,0.00,WUHU216HW,2013-03-01 10:00:00,
2013-03-01 04:05:00,28.6,24.9,30.02,NNW,338,0.4,1.3,86,0.00,,,0.00,WUHU216HW,2013-03-01 10:05:00,
2013-03-01 04:10:00,28.6,24.9,30.02,NW,317,2.0,3.6,86,0.00,,,0.00,WUHU216HW,2013-03-01 10:10:00,
2013-03-01 04:15:00,28.6,24.9,30.02,NNW,328,0.6,3.6,86,0.00,,,0.00,WUHU216HW,2013-03-01 10:15:00,
2013-03-01 04:20:00,28.6,24.9,30.01,NW,315,1.3,2.5,86,0.00,,,0.00,WUHU216HW,2013-03-01 10:20:00,
2013-03-01 04:25:00,28.6,24.9,30.02,NW,315,0.8,2.5,86,0.00,,,0.00,WUHU216HW,2013-03-01 10:25:00,
2013-03-01 04:30:00,28.6,24.9,30.02,North,5,2.3,2.7,86,0.00,,,0.00,WUHU216HW,2013-03-01 10:30:00,
2013-03-01 04:35:00,28.6,24.9,30.02,WNW,301,1.5,2.7,86,0.00,,,0.00,WUHU216HW,2013-03-01 10:35:00,
2013-03-01 04:40:00,28.6,24.9,30.02,NW,319,1.1,1.8,86,0.00,,,0.00,WUHU216HW,2013-03-01 10:40:00,
2013-03-01 04:45:00,28.6,24.9,30.02,NNE,23,1.1,1.8,86,0.00,,,0.00,WUHU216HW,2013-03-01 10:45:00,
2013-03-01 04:50:00,28.6,24.9,30.02,NNW,338,1.1,1.8,86,0.00,,,0.00,WUHU216HW,2013-03-01 10:50:00,
2013-03-01 04:55:00,28.6,24.9,30.02,NW,310,0.8,1.3,86,0.00,,,0.00,WUHU216HW,2013-03-01 10:55:00,
2013-03-01 05:00:00,28.6,24.9,30.02,NNW,338,1.6,3.4,86,0.00,,,0.00,WUHU216HW,2013-03-01 11:00:00,
2013-03-01 05:05:00,28.6,24.9,30.02,North,0,4.0,6.0,86,0.00,,,0.00,WUHU216HW,2013-03-01 11:05:00,
2013-03-01 05:10:00,28.6,24.9,30.02,NNE,13,1.2,6.0,86,0.00,,,0.00,WUHU216HW,2013-03-01 11:10:00,
2013-03-01 05:15:00,28.4,24.8,30.02,North,357,2.7,4.7,86,0.00,,,0.00,WUHU216HW,2013-03-01 11:15:00,
2013-03-01 05:20:00,28.6,24.9,30.02,North,0,0.9,4.7,86,0.00,,,0.00,WUHU216HW,2013-03-01 11:20:00,
2013-03-01 05:25:00,28.6,24.9,30.02,North,0,0.7,4.0,86,0.00,,,0.00,WUHU216HW,2013-03-01 11:25:00,
2013-03-01 05:30:00,28.4,24.8,30.02,NNW,338,2.9,4.9,86,0.00,,,0.00,WUHU216HW,2013-03-01 11:30:00,
2013-03-01 05:35:00,28.4,24.8,30.02,NW,315,2.0,4.9,86,0.00,,,0.00,WUHU216HW,2013-03-01 11:35:00,
2013-03-01 05:40:00,28.4,24.8,30.02,NW,321,0.8,2.0,86,0.00,,,0.00,WUHU216HW,2013-03-01 11:40:00,
2013-03-01 05:45:00,28.4,24.8,30.02,NNW,347,0.6,2.7,86,0.00,,,0.00,WUHU216HW,2013-03-01 11:45:00,
2013-03-01 05:50:00,28.4,24.8,30.02,NNW,348,2.0,2.7,86,0.00,,,0.00,WUHU216HW,2013-03-01 11:50:00,
2013-03-01 05:55:00,28.4,24.8,30.02,NW,315,0.7,2.2,86,0.00,,,0.00,WUHU216HW,2013-03-01 11:55:00,
2013-03-01 06:00:00,28.4,24.8,30.02,NNW,338,0.4,1.3,86,0.00,,,0.00,WUHU216HW,2013-03-01 12:00:00,
2013-03-01 06:05:00,28.4,24.8,30.02,NNE,23,0.8,4.0,86,0.00,,,0.00,WUHU216HW,2013-03-01 12:05:00,
2013-03-01 06:10:00,28.4,24.8,30.02,WNW,301,2.2,4.0,86,0.00,,,0.00,WUHU216HW,2013-03-01 12:10:00,
2013-03-01 06:15:00,28.4,24.8,30.02,NNW,343,0.8,3.4,86,0.00,,,0.00,WUHU216HW,2013-03-01 12:15:00,
2013-03-01 06:20:00,28.4,24.8,30.02,NW,315,0.4,2.5,86,0.00,,,0.00,WUHU216HW,2013-03-01 12:20:00,
2013-03-01 06:25:00,28.4,24.8,30.02,North,0,1.1,3.4,86,0.00,,,0.00,WUHU216HW,2013-03-01 12:25:00,
2013-03-01 06:30:00,28.4,24.8,30.02,North,354,1.3,3.4,86,0.00,,,0.00,WUHU216HW,2013-03-01 12:30:00,
2013-03-01 06:35:00,28.4,24.8,30.02,NW,315,1.0,2.5,86,0.00,,,0.00,WUHU216HW,2013-03-01 12:35:00,
2013-03-01 06:40:00,28.4,24.8,30.03,NNW,330,1.7,2.2,86,0.00,,,0.00,WUHU216HW,2013-03-01 12:40:00,
2013-03-01 06:45:00,28.4,24.8,30.03,WNW,293,1.8,2.9,86,0.00,,,0.00,WUHU216HW,2013-03-01 12:45:00,
2013-03-01 06:50:00,28.4,24.8,30.03,WNW,301,0.6,2.9,86,0.00,,,0.00,WUHU216HW,2013-03-01 12:50:00,
2013-03-01 06:55:00,28.4,24.8,30.03,West,269,1.3,2.9,86,0.00,,,0.00,WUHU216HW,2013-03-01 12:55:00,
2013-03-01 07:00:00,28.4,24.8,30.03,NW,313,2.5,3.4,86,0.00,,,0.00,WUHU216HW,2013-03-01 13:00:00,
2013-03-01 07:05:00,28.6,24.9,30.02,North,0,3.8,3.8,86,0.00,,,0.00,WUHU216HW,2013-03-01 13:05:00,
2013-03-01 07:10:00,28.6,24.9,30.03,WNW,302,2.2,3.8,86,0.00,,,0.00,WUHU216HW,2013-03-01 13:10:00,
2013-03-01 07:15:00,28.6,24.9,30.03,WNW,293,1.8,2.5,86,0.00,,,0.00,WUHU216HW,2013-03-01 13:15:00,
2013-03-01 07:20:00,28.6,24.9,30.03,NW,315,2.9,2.9,86,0.00,,,0.00,WUHU216HW,2013-03-01 13:20:00,
2013-03-01 07:25:00,28.6,24.9,30.03,WNW,302,0.6,5.1,86,0.00,,,0.00,WUHU216HW,2013-03-01 13:25:00,
2013-03-01 07:30:00,28.6,24.9,30.03,WNW,303,2.7,5.1,86,0.00,,,0.00,WUHU216HW,2013-03-01 13:30:00,
2013-03-01 07:35:00,28.6,24.7,30.03,North,353,1.7,4.5,85,0.00,,,0.00,WUHU216HW,2013-03-01 13:35:00,
2013-03-01 07:40:00,28.8,24.8,30.03,WNW,293,1.8,4.5,85,0.00,,,0.00,WUHU216HW,2013-03-01 13:40:00,
2013-03-01 07:45:00,28.8,24.6,30.03,NW,315,3.4,3.4,84,0.00,,,0.00,WUHU216HW,2013-03-01 13:45:00,
2013-03-01 07:50:00,28.8,24.3,30.04,North,358,3.8,4.7,83,0.00,,,0.00,WUHU216HW,2013-03-01 13:50:00,
2013-03-01 07:55:00,28.8,24.3,30.04,North,0,2.7,4.7,83,0.00,,,0.00,WUHU216HW,2013-03-01 13:55:00,
2013-03-01 08:00:00,29.0,24.5,30.04,WNW,295,2.7,4.0,83,0.00,,,0.00,WUHU216HW,2013-03-01 14:00:00,
2013-03-01 08:05:00,28.8,24.3,30.04,North,351,1.5,4.3,83,0.00,,,0.00,WUHU216HW,2013-03-01 14:05:00,
2013-03-01 08:10:00,28.8,24.3,30.04,WSW,256,2.8,4.7,83,0.00,,,0.00,WUHU216HW,2013-03-01 14:10:00,
2013-03-01 08:15:00,28.8,24.3,30.04,NW,315,1.1,4.7,83,0.00,,,0.00,WUHU216HW,2013-03-01 14:15:00,
2013-03-01 08:20:00,28.8,24.3,30.04,NNW,338,5.1,5.1,83,0.00,,,0.00,WUHU216HW,2013-03-01 14:20:00,
2013-03-01 08:25:00,29.0,24.5,30.04,NW,315,4.3,6.7,83,0.00,,,0.00,WUHU216HW,2013-03-01 14:25:00,
2013-03-01 08:30:00,29.0,24.5,30.05,North,0,2.7,6.7,83,0.00,,,0.00,WUHU216HW,2013-03-01 14:30:00,
2013-03-01 08:35:00,28.8,24.3,30.04,North,0,2.2,3.4,83,0.00,,,0.00,WUHU216HW,2013-03-01 14:35:00,
2013-03-01 08:40:00,29.0,24.5,30.05,West,273,1.5,2.9,83,0.00,,,0.00,WUHU216HW,2013-03-01 14:40:00,
2013-03-01 08:45:00,28.8,24.3,30.05,NW,315,4.0,4.0,83,0.00,,,0.00,WUHU216HW,2013-03-01 14:45:00,
2013-03-01 08:50:00,28.8,24.3,30.05,NW,315,2.8,4.0,83,0.00,,,0.00,WUHU216HW,2013-03-01 14:50:00,
2013-03-01 08:55:00,28.8,24.6,30.05,West,263,1.8,3.8,84,0.00,,,0.00,WUHU216HW,2013-03-01 14:55:00,
2013-03-01 09:00:00,28.8,24.3,30.05,West,270,4.0,4.7,83,0.00,,,0.00,WUHU216HW,2013-03-01 15:00:00,
2013-03-01 09:05:00,28.8,24.3,30.05,WNW,293,2.5,4.7,83,0.00,,,0.00,WUHU216HW,2013-03-01 15:05:00,
2013-03-01 09:10:00,28.8,24.6,30.05,NNW,338,2.7,3.6,84,0.00,,,0.00,WUHU216HW,2013-03-01 15:10:00,
2013-03-01 09:15:00,28.8,24.6,30.05,NNW,346,2.7,3.6,84,0.00,,,0.00,WUHU216HW,2013-03-01 15:15:00,
2013-03-01 09:20:00,28.6,24.7,30.05,NW,315,2.9,3.1,85,0.00,,,0.00,WUHU216HW,2013-03-01 15:20:00,
2013-03-01 09:25:00,28.4,24.5,30.05,NNW,338,2.8,4.0,85,0.00,,,0.00,WUHU216HW,2013-03-01 15:25:00,
2013-03-01 09:30:00,28.6,24.9,30.05,WNW,296,1.5,4.0,86,0.00,,,0.00,WUHU216HW,2013-03-01 15:30:00,
2013-03-01 09:35:00,28.4,24.8,30.05,North,0,4.0,4.0,86,0.00,,,0.00,WUHU216HW,2013-03-01 15:35:00,
2013-03-01 09:40:00,28.6,24.9,30.05,North,8,1.5,4.5,86,0.00,,,0.00,WUHU216HW,2013-03-01 15:40:00,
2013-03-01 09:45:00,28.6,25.2,30.05,NW,315,1.8,4.5,87,0.00,,,0.00,WUHU216HW,2013-03-01 15:45:00,
2013-03-01 09:50:00,29.0,25.3,30.05,North,0,2.5,3.6,86,0.00,,,0.00,WUHU216HW,2013-03-01 15:50:00,
2013-03-01 09:55:00,29.0,25.3,30.06,NNE,23,4.0,4.0,86,0.00,,,0.00,WUHU216HW,2013-03-01 15:55:00,
2013-03-01 10:00:00,29.2,25.5,30.06,NNW,338,1.3,4.0,86,0.00,,,0.00,WUHU216HW,2013-03-01 16:00:00,
2013-03-01 10:05:00,29.2,25.5,30.06,North,0,2.5,3.6,86,0.00,,,0.00,WUHU216HW,2013-03-01 16:05:00,
2013-03-01 10:10:00,29.2,25.5,30.06,NNE,23,2.9,2.9,86,0.00,,,0.00,WUHU216HW,2013-03-01 16:10:00,
2013-03-01 10:15:00,29.0,25.3,30.05,NW,315,6.9,6.9,86,0.00,,,0.00,WUHU216HW,2013-03-01 16:15:00,
2013-03-01 10:20:00,29.2,25.5,30.05,NNE,14,3.6,6.9,86,0.00,,,0.00,WUHU216HW,2013-03-01 16:20:00,
2013-03-01 10:25:00,29.3,25.7,30.05,North,354,3.5,5.1,86,0.00,,,0.00,WUHU216HW,2013-03-01 16:25:00,
2013-03-01 10:30:00,29.3,25.4,30.06,NW,315,3.6,5.6,85,0.00,,,0.00,WUHU216HW,2013-03-01 16:30:00,
2013-03-01 10:35:00,29.7,25.7,30.06,North,354,4.0,5.8,85,0.00,,,0.00,WUHU216HW,2013-03-01 16:35:00,
2013-03-01 10:40:00,29.7,25.5,30.06,North,0,3.6,7.4,84,0.00,,,0.00,WUHU216HW,2013-03-01 16:40:00,
2013-03-01 10:45:00,29.7,25.2,30.06,North,0,4.4,7.4,83,0.00,,,0.00,WUHU216HW,2013-03-01 16:45:00,
2013-03-01 10:50:00,29.7,25.2,30.06,NNW,328,3.0,6.7,83,0.00,,,0.00,WUHU216HW,2013-03-01 16:50:00,
2013-03-01 10:55:00,29.7,25.2,30.06,WNW,291,2.9,4.9,83,0.00,,,0.00,WUHU216HW,2013-03-01 16:55:00,
2013-03-01 11:00:00,29.7,24.8,30.06,NW,315,4.0,4.9,82,0.00,,,0.00,WUHU216HW,2013-03-01 17:00:00,
2013-03-01 11:05:00,29.7,24.6,30.06,NW,322,3.1,4.0,81,0.00,,,0.00,WUHU216HW,2013-03-01 17:05:00,
2013-03-01 11:10:00,29.7,24.8,30.06,North,4,2.3,4.3,82,0.00,,,0.00,WUHU216HW,2013-03-01 17:10:00,
2013-03-01 11:15:00,29.7,24.6,30.06,WNW,293,2.0,4.3,81,0.00,,,0.00,WUHU216HW,2013-03-01 17:15:00,
2013-03-01 11:20:00,29.5,24.4,30.07,NW,315,3.8,5.1,81,0.00,,,0.00,WUHU216HW,2013-03-01 17:20:00,
2013-03-01 11:25:00,29.5,24.4,30.06,West,278,2.2,5.1,81,0.00,,,0.00,WUHU216HW,2013-03-01 17:25:00,
2013-03-01 11:30:00,29.7,24.6,30.07,WNW,293,2.7,4.3,81,0.00,,,0.00,WUHU216HW,2013-03-01 17:30:00,
2013-03-01 11:35:00,29.7,24.3,30.07,NW,315,4.9,4.9,80,0.00,,,0.00,WUHU216HW,2013-03-01 17:35:00,
2013-03-01 11:40:00,29.7,24.6,30.07,NNE,23,2.9,4.9,81,0.00,,,0.00,WUHU216HW,2013-03-01 17:40:00,
2013-03-01 11:45:00,29.7,24.3,30.07,NNW,335,6.1,6.7,80,0.00,,,0.00,WUHU216HW,2013-03-01 17:45:00,
2013-03-01 11:50:00,29.5,24.1,30.07,North,353,1.8,6.7,80,0.00,,,0.00,WUHU216HW,2013-03-01 17:50:00,
2013-03-01 11:55:00,29.5,24.4,30.07,WNW,293,1.8,3.4,81,0.00,,,0.00,WUHU216HW,2013-03-01 17:55:00,
2013-03-01 12:00:00,29.3,23.9,30.07,NW,326,3.6,3.8,80,0.00,,,0.00,WUHU216HW,2013-03-01 18:00:00,
2013-03-01 12:05:00,29.2,23.8,30.07,NW,310,2.0,4.5,80,0.00,,,0.00,WUHU216HW,2013-03-01 18:05:00,
2013-03-01 12:10:00,29.2,24.0,30.07,WNW,293,4.0,4.5,81,0.00,,,0.00,WUHU216HW,2013-03-01 18:10:00,
2013-03-01 12:15:00,29.2,23.5,30.07,WSW,248,5.4,5.4,79,0.00,,,0.00,WUHU216HW,2013-03-01 18:15:00,
2013-03-01 12:20:00,29.2,23.5,30.07,NW,315,3.4,5.4,79,0.00,,,0.00,WUHU216HW,2013-03-01 18:20:00,
2013-03-01 12:25:00,29.2,23.5,30.07,NW,315,2.5,4.5,79,0.00,,,0.00,WUHU216HW,2013-03-01 18:25:00,
2013-03-01 12:30:00,29.2,23.8,30.07,North,354,3.5,4.9,80,0.00,,,0.00,WUHU216HW,2013-03-01 18:30:00,
2013-03-01 12:35:00,29.2,23.8,30.06,WNW,293,2.4,5.6,80,0.00,,,0.00,WUHU216HW,2013-03-01 18:35:00,
2013-03-01 12:40:00,29.2,23.8,30.06,NNW,334,4.0,5.6,80,0.00,,,0.00,WUHU216HW,2013-03-01 18:40:00,
2013-03-01 12:45:00,29.2,24.0,30.06,NW,315,4.7,4.7,81,0.00,,,0.00,WUHU216HW,2013-03-01 18:45:00,
2013-03-01 12:50:00,29.2,23.8,30.06,NW,306,1.8,4.7,80,0.00,,,0.00,WUHU216HW,2013-03-01 18:50:00,
2013-03-01 12:55:00,29.2,23.8,30.06,North,352,2.6,4.5,80,0.00,,,0.00,WUHU216HW,2013-03-01 18:55:00,
2013-03-01 13:00:00,29.0,23.6,30.06,NW,321,3.3,4.7,80,0.00,,,0.00,WUHU216HW,2013-03-01 19:00:00,
2013-03-01 13:05:00,29.0,23.6,30.05,NNW,338,3.1,5.6,80,0.00,,,0.00,WUHU216HW,2013-03-01 19:05:00,
2013-03-01 13:10:00,29.0,23.6,30.05,NNW,338,1.3,5.6,80,0.00,,,0.00,WUHU216HW,2013-03-01 19:10:00,
2013-03-01 13:15:00,29.0,23.6,30.05,NNW,338,2.7,3.1,80,0.00,,,0.00,WUHU216HW,2013-03-01 19:15:00,
2013-03-01 13:20:00,28.8,23.4,30.05,NNW,338,3.1,4.9,80,0.00,,,0.00,WUHU216HW,2013-03-01 19:20:00,
2013-03-01 13:25:00,28.8,23.4,30.05,NW,309,3.9,5.6,80,0.00,,,0.00,WUHU216HW,2013-03-01 19:25:00,
2013-03-01 13:30:00,28.8,23.4,30.05,SW,225,2.2,5.8,80,0.00,,,0.00,WUHU216HW,2013-03-01 19:30:00,
2013-03-01 13:35:00,28.6,23.0,30.05,North,353,4.7,6.3,79,0.00,,,0.00,WUHU216HW,2013-03-01 19:35:00,
2013-03-01 13:40:00,28.4,23.0,30.05,NW,315,3.8,6.3,80,0.00,,,0.00,WUHU216HW,2013-03-01 19:40:00,
2013-03-01 13:45:00,28.4,23.0,30.05,NNW,338,3.1,4.7,80,0.00,,,0.00,WUHU216HW,2013-03-01 19:45:00,
2013-03-01 13:50:00,28.4,23.0,30.05,NNW,345,2.5,4.7,80,0.00,,,0.00,WUHU216HW,2013-03-01 19:50:00,
2013-03-01 13:55:00,28.4,22.8,30.05,NNW,338,4.7,4.9,79,0.00,,,0.00,WUHU216HW,2013-03-01 19:55:00,
2013-03-01 14:00:00,28.4,22.8,30.05,WNW,293,3.4,4.9,79,0.00,,,0.00,WUHU216HW,2013-03-01 20:00:00,
2013-03-01 14:05:00,28.4,22.8,30.05,NNW,330,4.7,6.3,79,0.00,,,0.00,WUHU216HW,2013-03-01 20:05:00,
2013-03-01 14:10:00,28.4,23.0,30.05,NW,316,3.4,6.3,80,0.00,,,0.00,WUHU216HW,2013-03-01 20:10:00,
2013-03-01 14:15:00,28.4,23.3,30.05,NNE,23,3.1,4.9,81,0.00,,,0.00,WUHU216HW,2013-03-01 20:15:00,
2013-03-01 14:20:00,28.4,23.3,30.05,North,0,2.5,4.7,81,0.00,,,0.00,WUHU216HW,2013-03-01 20:20:00,
2013-03-01 14:25:00,28.4,23.0,30.05,NW,315,5.8,5.8,80,0.00,,,0.00,WUHU216HW,2013-03-01 20:25:00,
2013-03-01 14:30:00,28.6,23.2,30.05,NW,315,3.8,5.8,80,0.00,,,0.00,WUHU216HW,2013-03-01 20:30:00,
2013-03-01 14:35:00,28.8,23.4,30.05,NW,314,3.9,4.0,80,0.00,,,0.00,WUHU216HW,2013-03-01 20:35:00,
2013-03-01 14:40:00,28.8,23.4,30.04,NW,315,4.0,4.0,80,0.00,,,0.00,WUHU216HW,2013-03-01 20:40:00,
2013-03-01 14:45:00,29.2,23.8,30.04,NNW,338,2.5,4.0,80,0.00,,,0.00,WUHU216HW,2013-03-01 20:45:00,
2013-03-01 14:50:00,28.8,23.4,30.04,North,350,2.3,4.0,80,0.00,,,0.00,WUHU216HW,2013-03-01 20:50:00,
2013-03-01 14:55:00,28.8,23.7,30.05,NNW,347,1.8,4.0,81,0.00,,,0.00,WUHU216HW,2013-03-01 20:55:00,
2013-03-01 15:00:00,28.8,23.4,30.05,NNW,331,1.8,4.3,80,0.00,,,0.00,WUHU216HW,2013-03-01 21:00:00,
2013-03-01 15:05:00,29.0,23.3,30.05,North,0,3.4,4.3,79,0.00,,,0.00,WUHU216HW,2013-03-01 21:05:00,
2013-03-01 15:10:00,29.0,23.3,30.05,NNE,13,3.9,4.3,79,0.00,,,0.00,WUHU216HW,2013-03-01 21:10:00,
2013-03-01 15:15:00,29.0,23.3,30.05,WNW,293,2.5,4.3,79,0.00,,,0.00,WUHU216HW,2013-03-01 21:15:00,
2013-03-01 15:20:00,29.0,23.3,30.05,WNW,300,3.3,3.4,79,0.00,,,0.00,WUHU216HW,2013-03-01 21:20:00,
2013-03-01 15:25:00,29.2,23.5,30.05,North,351,3.9,6.0,79,0.00,,,0.00,WUHU216HW,2013-03-01 21:25:00,
2013-03-01 15:30:00,29.2,23.5,30.05,West,261,1.6,6.0,79,0.00,,,0.00,WUHU216HW,2013-03-01 21:30:00,
2013-03-01 15:35:00,29.5,23.5,30.05,NW,315,3.4,3.4,78,0.00,,,0.00,WUHU216HW,2013-03-01 21:35:00,
2013-03-01 15:40:00,29.3,23.3,30.05,NNW,338,3.1,5.4,78,0.00,,,0.00,WUHU216HW,2013-03-01 21:40:00,
2013-03-01 15:45:00,29.2,23.1,30.05,NNW,332,1.5,5.4,78,0.00,,,0.00,WUHU216HW,2013-03-01 21:45:00,
2013-03-01 15:50:00,29.2,23.5,30.05,NW,322,4.2,5.6,79,0.00,,,0.00,WUHU216HW,2013-03-01 21:50:00,
2013-03-01 15:55:00,29.0,23.3,30.05,NNW,338,4.9,5.6,79,0.00,,,0.00,WUHU216HW,2013-03-01 21:55:00,
2013-03-01 16:00:00,29.2,23.5,30.05,SSW,203,4.9,4.9,79,0.00,,,0.00,WUHU216HW,2013-03-01 22:00:00,
2013-03-01 16:05:00,29.2,23.1,30.05,West,270,4.7,4.9,78,0.00,,,0.00,WUHU216HW,2013-03-01 22:05:00,
2013-03-01 16:10:00,29.2,23.5,30.05,WSW,248,0.9,4.7,79,0.00,,,0.00,WUHU216HW,2013-03-01 22:10:00,
2013-03-01 16:15:00,29.0,23.6,30.06,NNW,347,1.4,3.6,80,0.00,,,0.00,WUHU216HW,2013-03-01 22:15:00,
2013-03-01 16:20:00,29.0,23.6,30.06,North,0,3.8,6.7,80,0.00,,,0.00,WUHU216HW,2013-03-01 22:20:00,
2013-03-01 16:25:00,29.0,23.6,30.06,North,0,5.8,6.7,80,0.00,,,0.00,WUHU216HW,2013-03-01 22:25:00,
2013-03-01 16:30:00,29.0,23.6,30.06,NNW,328,2.1,5.8,80,0.00,,,0.00,WUHU216HW,2013-03-01 22:30:00,
2013-03-01 16:35:00,29.2,23.8,30.06,NW,315,6.3,6.3,80,0.00,,,0.00,WUHU216HW,2013-03-01 22:35:00,
2013-03-01 16:40:00,29.0,23.6,30.06,NNW,338,4.7,6.3,80,0.00,,,0.00,WUHU216HW,2013-03-01 22:40:00,
2013-03-01 16:45:00,28.8,23.4,30.06,NW,315,1.8,4.7,80,0.00,,,0.00,WUHU216HW,2013-03-01 22:45:00,
2013-03-01 16:50:00,28.4,23.0,30.06,NW,315,4.5,4.5,80,0.00,,,0.00,WUHU216HW,2013-03-01 22:50:00,
2013-03-01 16:55:00,28.4,23.3,30.06,NNW,329,2.0,4.5,81,0.00,,,0.00,WUHU216HW,2013-03-01 22:55:00,
2013-03-01 17:00:00,28.4,23.3,30.06,WNW,293,3.3,4.5,81,0.00,,,0.00,WUHU216HW,2013-03-01 23:00:00,
2013-03-01 17:05:00,28.3,23.4,30.06,NNW,332,3.3,4.9,82,0.00,,,0.00,WUHU216HW,2013-03-01 23:05:00,
2013-03-01 17:10:00,28.3,23.8,30.07,NNW,338,3.4,4.9,83,0.00,,,0.00,WUHU216HW,2013-03-01 23:10:00,
2013-03-01 17:15:00,28.1,23.6,30.06,NW,306,1.5,3.4,83,0.00,,,0.00,WUHU216HW,2013-03-01 23:15:00,
2013-03-01 17:20:00,28.1,23.6,30.06,North,0,1.3,3.1,83,0.00,,,0.00,WUHU216HW,2013-03-01 23:20:00,
2013-03-01 17:25:00,27.9,23.7,30.07,NW,315,2.5,2.7,84,0.00,,,0.00,WUHU216HW,2013-03-01 23:25:00,
2013-03-01 17:30:00,27.9,23.7,30.07,North,0,2.5,4.5,84,0.00,,,0.00,WUHU216HW,2013-03-01 23:30:00,
2013-03-01 17:35:00,27.7,23.2,30.07,NNE,23,2.7,4.5,83,0.00,,,0.00,WUHU216HW,2013-03-01 23:35:00,
2013-03-01 17:40:00,27.7,23.2,30.07,NNW,342,2.5,4.3,83,0.00,,,0.00,WUHU216HW,2013-03-01 23:40:00,
2013-03-01 17:45:00,27.9,23.4,30.07,NW,315,6.7,6.7,83,0.00,,,0.00,WUHU216HW,2013-03-01 23:45:00,
2013-03-01 17:50:00,27.7,23.2,30.07,NNW,338,4.3,6.7,83,0.00,,,0.00,WUHU216HW,2013-03-01 23:50:00,
2013-03-01 17:55:00,27.7,23.2,30.08,North,0,3.4,5.8,83,0.00,,,0.00,WUHU216HW,2013-03-01 23:55:00,
2013-03-01 18:00:00,27.7,23.2,30.08,North,351,1.5,5.8,83,0.00,,,0.00,WUHU216HW,2013-03-02 00:00:00,
2013-03-01 18:05:00,27.7,23.2,30.08,NNW,328,2.7,3.8,83,0.00,,,0.00,WUHU216HW,2013-03-02 00:05:00,
2013-03-01 18:10:00,27.7,23.2,30.08,NW,316,2.6,3.8,83,0.00,,,0.00,WUHU216HW,2013-03-02 00:10:00,
2013-03-01 18:15:00,27.7,23.2,30.08,North,0,2.7,2.7,83,0.00,,,0.00,WUHU216HW,2013-03-02 00:15:00,
2013-03-01 18:20:00,27.7,23.5,30.08,North,355,1.6,2.9,84,0.00,,,0.00,WUHU216HW,2013-03-02 00:20:00,
2013-03-01 18:25:00,27.5,23.3,30.08,NW,315,3.4,3.4,84,0.00,,,0.00,WUHU216HW,2013-03-02 00:25:00,
2013-03-01 18:30:00,27.5,23.3,30.08,North,351,2.3,3.4,84,0.00,,,0.00,WUHU216HW,2013-03-02 00:30:00,
2013-03-01 18:35:00,27.5,23.6,30.08,North,356,1.5,3.4,85,0.00,,,0.00,WUHU216HW,2013-03-02 00:35:00,
2013-03-01 18:40:00,27.5,23.6,30.08,North,0,1.8,2.0,85,0.00,,,0.00,WUHU216HW,2013-03-02 00:40:00,
2013-03-01 18:45:00,27.4,23.4,30.09,NNW,338,3.5,4.0,85,0.00,,,0.00,WUHU216HW,2013-03-02 00:45:00,
2013-03-01 18:50:00,27.4,23.4,30.09,North,0,1.1,4.0,85,0.00,,,0.00,WUHU216HW,2013-03-02 00:50:00,
2013-03-01 18:55:00,27.4,23.4,30.09,North,0,2.5,2.5,85,0.00,,,0.00,WUHU216HW,2013-03-02 00:55:00,
2013-03-01 19:00:00,27.2,23.2,30.09,NNW,338,2.5,4.3,85,0.00,,,0.00,WUHU216HW,2013-03-02 01:00:00,
2013-03-01 19:05:00,27.2,23.2,30.09,NW,315,1.3,4.3,85,0.00,,,0.00,WUHU216HW,2013-03-02 01:05:00,
2013-03-01 19:10:00,27.0,23.0,30.09,NW,315,0.9,2.9,85,0.00,,,0.00,WUHU216HW,2013-03-02 01:10:00,
2013-03-01 19:15:00,27.0,23.0,30.09,North,0,0.4,1.3,85,0.00,,,0.00,WUHU216HW,2013-03-02 01:15:00,
2013-03-01 19:21:00,27.0,23.3,30.09,North,0,1.1,1.6,86,0.00,,,0.00,WUHU216HW,2013-03-02 01:21:00,
2013-03-01 19:26:00,27.0,23.3,30.09,NNW,338,1.6,1.8,86,0.00,,,0.00,WUHU216HW,2013-03-02 01:26:00,
2013-03-01 19:30:00,27.0,23.3,30.09,WNW,293,1.1,1.8,86,0.00,,,0.00,WUHU216HW,2013-03-02 01:30:00,
2013-03-01 19:35:00,27.0,23.6,30.09,North,352,1.3,2.9,87,0.00,,,0.00,WUHU216HW,2013-03-02 01:35:00,
2013-03-01 19:41:00,27.0,23.3,30.09,NW,315,1.2,2.9,86,0.00,,,0.00,WUHU216HW,2013-03-02 01:41:00,
2013-03-01 19:46:00,27.0,23.3,30.09,North,0,2.0,2.2,86,0.00,,,0.00,WUHU216HW,2013-03-02 01:46:00,
2013-03-01 19:51:00,27.0,23.3,30.09,NNW,342,0.4,2.9,86,0.00,,,0.00,WUHU216HW,2013-03-02 01:51:00,
2013-03-01 19:56:00,27.0,23.6,30.09,NNW,338,0.9,2.9,87,0.00,,,0.00,WUHU216HW,2013-03-02 01:56:00,
2013-03-01 20:01:00,27.0,23.6,30.09,North,0,1.8,1.8,87,0.00,,,0.00,WUHU216HW,2013-03-02 02:01:00,
2013-03-01 20:06:00,27.0,23.6,30.09,North,0,1.6,2.0,87,0.00,,,0.00,WUHU216HW,2013-03-02 02:06:00,
2013-03-01 20:11:00,27.0,23.6,30.09,NW,315,0.9,2.0,87,0.00,,,0.00,WUHU216HW,2013-03-02 02:11:00,
2013-03-01 20:16:00,27.2,23.8,30.09,North,0,1.6,1.8,87,0.00,,,0.00,WUHU216HW,2013-03-02 02:16:00,
2013-03-01 20:21:00,27.2,23.8,30.09,North,0,2.7,4.7,87,0.00,,,0.00,WUHU216HW,2013-03-02 02:21:00,
2013-03-01 20:26:00,27.2,23.8,30.10,North,351,1.1,4.7,87,0.00,,,0.00,WUHU216HW,2013-03-02 02:26:00,
2013-03-01 20:31:00,27.2,23.8,30.10,NNW,338,1.1,1.6,87,0.00,,,0.00,WUHU216HW,2013-03-02 02:31:00,
2013-03-01 20:36:00,27.2,23.8,30.10,North,351,1.4,1.8,87,0.00,,,0.00,WUHU216HW,2013-03-02 02:36:00,
2013-03-01 20:41:00,27.2,23.8,30.10,North,0,1.8,1.8,87,0.00,,,0.00,WUHU216HW,2013-03-02 02:41:00,
2013-03-01 20:46:00,27.2,23.8,30.10,NNW,338,2.0,2.9,87,0.00,,,0.00,WUHU216HW,2013-03-02 02:46:00,
2013-03-01 20:51:00,27.4,23.9,30.10,NW,315,2.5,3.4,87,0.00,,,0.00,WUHU216HW,2013-03-02 02:51:00,
2013-03-01 20:56:00,27.4,23.9,30.11,NNW,338,1.1,3.4,87,0.00,,,0.00,WUHU216HW,2013-03-02 02:56:00,
2013-03-01 21:01:00,27.4,23.9,30.11,NNW,338,4.0,4.0,87,0.00,,,0.00,WUHU216HW,2013-03-02 03:01:00,
2013-03-01 21:06:00,27.4,23.9,30.11,NNE,23,2.5,4.0,87,0.00,,,0.00,WUHU216HW,2013-03-02 03:06:00,
2013-03-01 21:10:00,27.4,23.7,30.11,NNW,332,4.2,6.3,86,0.00,,,0.00,WUHU216HW,2013-03-02 03:10:00,
2013-03-01 21:15:00,27.4,23.7,30.11,NNW,338,2.7,6.3,86,0.00,,,0.00,WUHU216HW,2013-03-02 03:15:00,
2013-03-01 21:20:00,27.4,23.9,30.11,North,0,1.9,2.9,87,0.00,,,0.00,WUHU216HW,2013-03-02 03:20:00,
2013-03-01 21:25:00,27.4,23.9,30.11,ENE,68,2.5,2.5,87,0.00,,,0.00,WUHU216HW,2013-03-02 03:25:00,
2013-03-01 21:30:00,27.4,23.7,30.11,North,352,2.6,3.4,86,0.00,,,0.00,WUHU216HW,2013-03-02 03:30:00,
2013-03-01 21:35:00,27.4,23.7,30.11,NNE,23,2.9,4.7,86,0.00,,,0.00,WUHU216HW,2013-03-02 03:35:00,
2013-03-01 21:40:00,27.4,23.9,30.11,North,0,3.8,4.7,87,0.00,,,0.00,WUHU216HW,2013-03-02 03:40:00,
2013-03-01 21:45:00,27.4,23.9,30.11,NNW,338,1.1,3.8,87,0.00,,,0.00,WUHU216HW,2013-03-02 03:45:00,
2013-03-01 21:50:00,27.4,23.9,30.11,NW,307,1.3,5.1,87,0.00,,,0.00,WUHU216HW,2013-03-02 03:50:00,
2013-03-01 21:55:00,27.4,23.9,30.11,North,0,2.3,5.1,87,0.00,,,0.00,WUHU216HW,2013-03-02 03:55:00,
2013-03-01 22:00:00,27.4,23.9,30.11,WNW,283,2.3,4.3,87,0.00,,,0.00,WUHU216HW,2013-03-02 04:00:00,
2013-03-01 22:05:00,27.4,23.9,30.11,NW,315,2.5,3.4,87,0.00,,,0.00,WUHU216HW,2013-03-02 04:05:00,
2013-03-01 22:10:00,27.4,23.9,30.11,NW,323,2.5,4.3,87,0.00,,,0.00,WUHU216HW,2013-03-02 04:10:00,
2013-03-01 22:15:00,27.4,23.9,30.11,NNW,338,1.1,5.1,87,0.00,,,0.00,WUHU216HW,2013-03-02 04:15:00,
2013-03-01 22:20:00,27.4,23.9,30.11,NNW,348,1.7,5.1,87,0.00,,,0.00,WUHU216HW,2013-03-02 04:20:00,
2013-03-01 22:25:00,27.4,23.9,30.11,NNW,342,1.7,3.4,87,0.00,,,0.00,WUHU216HW,2013-03-02 04:25:00,
2013-03-01 22:30:00,27.4,23.9,30.11,NNW,338,1.8,5.8,87,0.00,,,0.00,WUHU216HW,2013-03-02 04:30:00,
2013-03-01 22:35:00,27.4,23.9,30.11,NNE,16,2.0,5.8,87,0.00,,,0.00,WUHU216HW,2013-03-02 04:35:00,
2013-03-01 22:40:00,27.4,23.9,30.11,NNW,332,0.8,4.7,87,0.00,,,0.00,WUHU216HW,2013-03-02 04:40:00,
2013-03-01 22:45:00,27.5,24.1,30.11,NNW,338,1.6,4.7,87,0.00,,,0.00,WUHU216HW,2013-03-02 04:45:00,
2013-03-01 22:50:00,27.5,24.1,30.11,North,0,6.0,6.0,87,0.00,,,0.00,WUHU216HW,2013-03-02 04:50:00,
2013-03-01 22:55:00,27.5,24.1,30.11,NNE,25,1.5,6.3,87,0.00,,,0.00,WUHU216HW,2013-03-02 04:55:00,
2013-03-01 23:00:00,27.5,24.1,30.11,NE,45,4.7,6.9,87,0.00,,,0.00,WUHU216HW,2013-03-02 05:00:00,
2013-03-01 23:05:00,27.5,24.1,30.11,North,0,4.3,6.9,87,0.00,,,0.00,WUHU216HW,2013-03-02 05:05:00,
2013-03-01 23:10:00,27.5,23.9,30.11,NNE,12,5.1,6.3,86,0.00,,,0.00,WUHU216HW,2013-03-02 05:10:00,
2013-03-01 23:15:00,27.5,23.9,30.10,NNE,15,2.8,5.8,86,0.00,,,0.00,WUHU216HW,2013-03-02 05:15:00,
2013-03-01 23:20:00,27.5,23.9,30.11,North,0,4.3,4.9,86,0.00,,,0.00,WUHU216HW,2013-03-02 05:20:00,
2013-03-01 23:25:00,27.5,23.9,30.11,North,0,4.0,4.7,86,0.00,,,0.00,WUHU216HW,2013-03-02 05:25:00,
2013-03-01 23:30:00,27.5,24.1,30.11,NW,323,3.2,4.7,87,0.00,,,0.00,WUHU216HW,2013-03-02 05:30:00,
2013-03-01 23:35:00,27.5,23.9,30.11,North,0,2.5,4.5,86,0.00,,,0.00,WUHU216HW,2013-03-02 05:35:00,
2013-03-01 23:40:00,27.4,23.7,30.11,NW,315,4.7,5.4,86,0.00,,,0.00,WUHU216HW,2013-03-02 05:40:00,
2013-03-01 23:45:00,27.4,23.7,30.11,North,0,2.2,5.4,86,0.00,,,0.00,WUHU216HW,2013-03-02 05:45:00,
2013-03-01 23:50:00,27.4,23.9,30.11,NW,315,3.4,4.3,87,0.00,,,0.00,WUHU216HW,2013-03-02 05:50:00,
2013-03-01 23:55:00,27.4,23.7,30.10,North,0,1.1,4.3,86,0.00,,,0.00,WUHU216HW,2013-03-02 05:55:00,